QPF
0.00 0.00 0.00 0.00 0.00 0.00 0.00 0.01 0.03 0.03 0.04 0.05 0.05 0.05 0.07 0.07 0.07 0.07 0.06 0.08 0.09 0.10 0.11 0.08 0.08 0.08 0.08 0.07 0.07 0.08 0.08 0.08 0.08 0.08 0.08 0.08 0.07 0.06 0.06 0.06 0.07 0.06 0.05
0.00 0.00 0.00 0.00 0.00 0.00 0.00 0.01 0.01 0.02 0.02 0.03 0.04 0.05 0.06 0.05 0.05 0.06 0.08 0.06 0.06 0.06 0.07 0.08 0.07 0.07 0.08 0.08 0.07 0.07 0.07 0.07 0.10 0.11 0.12 0.10 0.11 0.10 0.06 0.05 0.04 0.05 0.06
0.00 0.00 0.00 0.00 0.00 0.00 0.00 0.01 0.01 0.01 0.01 0.03 0.03 0.04 0.05 0.04 0.05 0.06 0.06 0.04 0.04 0.04 0.04 0.05 0.05 0.06 0.07 0.07 0.07 0.07 0.08 0.07 0.09 0.11 0.13 0.13 0.12 0.12 0.08 0.05 0.03 0.04 0.05
0.00 0.00 0.00 0.00 0.00 0.00 0.00 0.00 0.00 0.01 0.01 0.02 0.03 0.03 0.02 0.03 0.05 0.05 0.03 0.04 0.04 0.03 0.03 0.04 0.05 0.06 0.05 0.07 0.05 0.05 0.08 0.08 0.09 0.11 0.10 0.09 0.09 0.11 0.10 0.08 0.04 0.03 0.03
0.00 0.00 0.00 0.00 0.00 0.00 0.00 0.00 0.00 0.01 0.01 0.02 0.02 0.03 0.03 0.03 0.03 0.03 0.05 0.05 0.04 0.03 0.03 0.04 0.05 0.05 0.05 0.05 0.05 0.07 0.07 0.09 0.08 0.09 0.10 0.08 0.08 0.08 0.08 0.08 0.07 0.06 0.03
0.00 0.00 0.00 0.00 0.00 0.00 0.00 0.00 0.00 0.01 0.01 0.01 0.01 0.03 0.04 0.04 0.05 0.04 0.04 0.03 0.03 0.03 0.03 0.04 0.05 0.05 0.05 0.05 0.05 0.06 0.06 0.07 0.08 0.08 0.09 0.10 0.09 0.09 0.10 0.08 0.07 0.07 0.04
0.00 0.00 0.00 0.00 0.00 0.00 0.00 0.00 0.00 0.01 0.01 0.00 0.01 0.01 0.02 0.03 0.04 0.03 0.04 0.04 0.03 0.03 0.03 0.04 0.05 0.04 0.05 0.04 0.05 0.06 0.05 0.06 0.07 0.08 0.08 0.10 0.10 0.09 0.09 0.09 0.08 0.06 0.05
0.00 0.00 0.00 0.00 0.00 0.00 0.00 0.00 0.00 0.00 0.01 0.01 0.01 0.01 0.02 0.02 0.03 0.03 0.03 0.03 0.02 0.01 0.01 0.01 0.02 0.02 0.03 0.04 0.06 0.05 0.05 0.05 0.06 0.06 0.08 0.09 0.08 0.07 0.05 0.06 0.09 0.09 0.06
0.00 0.00 0.00 0.00 0.00 0.00 0.00 0.01 0.02 0.02 0.02 0.02 0.01 0.01 0.01 0.02 0.03 0.03 0.02 0.02 0.02 0.02 0.02 0.02 0.02 0.02 0.02 0.04 0.05 0.05 0.06 0.06 0.06 0.05 0.06 0.06 0.06 0.06 0.03 0.03 0.05 0.07 0.07
0.00 0.00 0.00 0.00 0.00 0.01 0.01 0.01 0.03 0.04 0.04 0.03 0.02 0.02 0.02 0.02 0.03 0.03 0.03 0.02 0.02 0.03 0.03 0.02 0.03 0.03 0.03 0.03 0.04 0.05 0.05 0.06 0.06 0.06 0.07 0.07 0.06 0.06 0.05 0.05 0.05 0.05 0.06
0.00 0.00 0.00 0.00 0.00 0.01 0.01 0.02 0.04 0.04 0.04 0.03 0.03 0.03 0.03 0.02 0.02 0.02 0.02 0.03 0.03 0.02 0.02 0.03 0.04 0.04 0.03 0.04 0.04 0.03 0.05 0.05 0.06 0.06 0.07 0.07 0.08 0.08 0.08 0.08 0.07 0.07 0.06
0.01 0.01 0.01 0.02 0.02 0.02 0.03 0.04 0.05 0.05 0.06 0.05 0.06 0.08 0.07 0.04 0.03 0.02 0.02 0.02 0.02 0.02 0.02 0.02 0.03 0.02 0.02 0.02 0.02 0.02 0.04 0.06 0.06 0.07 0.08 0.07 0.09 0.09 0.09 0.08 0.06 0.06 0.06
0.03 0.02 0.02 0.02 0.03 0.03 0.04 0.04 0.05 0.06 0.06 0.04 0.03 0.04 0.03 0.02 0.02 0.02 0.02 0.02 0.01 0.01 0.01 0.01 0.02 0.02 0.02 0.02 0.02 0.03 0.04 0.06 0.07 0.09 0.10 0.10 0.12 0.11 0.10 0.09 0.08 0.08 0.07
0.09 0.04 0.01 0.01 0.01 0.02 0.02 0.02 0.02 0.02 0.02 0.02 0.01 0.01 0.02 0.02 0.03 0.02 0.02 0.02 0.02 0.01 0.01 0.01 0.02 0.02 0.02 0.02 0.02 0.03 0.05 0.06 0.08 0.09 0.10 0.10 0.12 0.12 0.13 0.12 0.11 0.10 0.10
0.07 0.04 0.01 0.01 0.01 0.01 0.01 0.01 0.01 0.01 0.01 0.01 0.01 0.01 0.01 0.01 0.01 0.02 0.01 0.01 0.02 0.01 0.02 0.02 0.03 0.03 0.02 0.02 0.03 0.04 0.05 0.06 0.07 0.08 0.08 0.08 0.11 0.12 0.13 0.13 0.12 0.12 0.10
0.04 0.01 0.00 0.01 0.00 0.00 0.00 0.01 0.01 0.01 0.01 0.01 0.02 0.02 0.02 0.01 0.02 0.02 0.01 0.01 0.02 0.02 0.03 0.03 0.03 0.03 0.03 0.03 0.03 0.05 0.05 0.06 0.07 0.07 0.08 0.09 0.11 0.09 0.09 0.09 0.08 0.08 0.07
0.06 0.03 0.01 0.00 0.00 0.00 0.01 0.00 0.00 0.00 0.00 0.01 0.02 0.02 0.02 0.02 0.02 0.02 0.02 0.02 0.03 0.03 0.04 0.04 0.04 0.03 0.03 0.03 0.03 0.04 0.04 0.06 0.07 0.09 0.09 0.08 0.09 0.08 0.07 0.06 0.05 0.04 0.04
0.04 0.02 0.02 0.02 0.02 0.02 0.01 0.01 0.01 0.01 0.01 0.02 0.03 0.03 0.03 0.02 0.02 0.02 0.02 0.03 0.03 0.04 0.04 0.05 0.05 0.04 0.03 0.03 0.03 0.04 0.04 0.06 0.08 0.09 0.09 0.09 0.09 0.07 0.07 0.05 0.04 0.03 0.03
0.04 0.03 0.03 0.02 0.03 0.04 0.04 0.03 0.04 0.04 0.04 0.04 0.04 0.05 0.05 0.05 0.04 0.04 0.04 0.06 0.06 0.06 0.05 0.05 0.04 0.03 0.03 0.04 0.04 0.05 0.03 0.04 0.06 0.06 0.07 0.07 0.05 0.04 0.05 0.04 0.05 0.04 0.03
0.03 0.03 0.02 0.02 0.02 0.04 0.05 0.04 0.05 0.06 0.06 0.05 0.05 0.06 0.07 0.08 0.07 0.06 0.06 0.07 0.08 0.07 0.06 0.06 0.04 0.03 0.03 0.04 0.03 0.04 0.05 0.05 0.05 0.06 0.06 0.05 0.04 0.04 0.03 0.04 0.04 0.03 0.04
0.04 0.03 0.02 0.02 0.02 0.04 0.05 0.06 0.05 0.07 0.07 0.07 0.08 0.08 0.08 0.08 0.09 0.08 0.07 0.08 0.08 0.08 0.07 0.06 0.04 0.03 0.03 0.03 0.02 0.01 0.02 0.03 0.04 0.04 0.04 0.03 0.03 0.03 0.03 0.04 0.04 0.04 0.05
0.03 0.02 0.02 0.02 0.03 0.04 0.04 0.05 0.06 0.07 0.07 0.07 0.09 0.10 0.11 0.08 0.06 0.07 0.07 0.07 0.06 0.07 0.06 0.04 0.03 0.02 0.02 0.02 0.02 0.01 0.01 0.01 0.02 0.03 0.03 0.03 0.03 0.03 0.03 0.03 0.03 0.04 0.05
0.02 0.02 0.02 0.03 0.04 0.04 0.04 0.05 0.06 0.07 0.08 0.09 0.09 0.10 0.10 0.06 0.04 0.04 0.04 0.04 0.04 0.03 0.02 0.02 0.03 0.03 0.02 0.02 0.02 0.01 0.01 0.01 0.01 0.02 0.03 0.04 0.04 0.03 0.03 0.03 0.03 0.03 0.03
0.02 0.02 0.03 0.03 0.04 0.04 0.05 0.06 0.07 0.09 0.10 0.10 0.10 0.11 0.11 0.09 0.04 0.03 0.03 0.03 0.03 0.02 0.02 0.02 0.03 0.03 0.03 0.02 0.02 0.02 0.02 0.03 0.04 0.04 0.05 0.04 0.03 0.03 0.03 0.03 0.03 0.02 0.02
0.03 0.03 0.03 0.04 0.04 0.04 0.05 0.05 0.06 0.07 0.07 0.07 0.07 0.07 0.09 0.10 0.08 0.06 0.03 0.02 0.02 0.02 0.01 0.01 0.01 0.02 0.01 0.02 0.03 0.03 0.03 0.04 0.05 0.05 0.04 0.04 0.04 0.03 0.03 0.03 0.03 0.03 0.03
0.03 0.03 0.03 0.03 0.03 0.03 0.03 0.03 0.04 0.05 0.05 0.05 0.04 0.03 0.04 0.05 0.06 0.05 0.04 0.04 0.03 0.03 0.02 0.01 0.02 0.02 0.02 0.03 0.04 0.05 0.06 0.06 0.06 0.05 0.05 0.05 0.04 0.03 0.03 0.03 0.03 0.03 0.03
MSLP
1008.62 1009.04 1009.38 1009.63 1009.82 1010.01 1010.24 1010.54 1010.93 1011.39 1011.88 1012.36 1012.78 1013.10 1013.30 1013.40 1013.42 1013.40 1013.40 1013.44 1013.56 1013.75 1014.00 1014.29 1014.59 1014.88 1015.14 1015.36 1015.55 1015.70 1015.81 1015.87 1015.89 1015.83 1015.69 1015.44 1015.10 1014.65 1014.14 1013.61 1013.10 1012.66 1012.33
1008.23 1008.75 1009.15 1009.43 1009.61 1009.76 1009.93 1010.17 1010.53 1011.00 1011.55 1012.11 1012.64 1013.08 1013.38 1013.55 1013.60 1013.58 1013.54 1013.53 1013.58 1013.70 1013.90 1014.16 1014.45 1014.75 1015.02 1015.25 1015.45 1015.61 1015.74 1015.82 1015.86 1015.83 1015.72 1015.51 1015.18 1014.74 1014.20 1013.61 1013.01 1012.46 1011.99
1007.56 1008.21 1008.73 1009.08 1009.30 1009.45 1009.59 1009.79 1010.12 1010.58 1011.14 1011.77 1012.37 1012.90 1013.30 1013.55 1013.66 1013.66 1013.61 1013.56 1013.56 1013.63 1013.78 1014.00 1014.26 1014.54 1014.80 1015.03 1015.23 1015.39 1015.52 1015.62 1015.69 1015.70 1015.64 1015.48 1015.21 1014.82 1014.31 1013.72 1013.08 1012.46 1011.90
1006.62 1007.43 1008.10 1008.59 1008.91 1009.11 1009.27 1009.46 1009.76 1010.20 1010.75 1011.38 1012.03 1012.61 1013.08 1013.39 1013.55 1013.59 1013.55 1013.49 1013.46 1013.49 1013.60 1013.78 1014.00 1014.24 1014.48 1014.69 1014.88 1015.03 1015.16 1015.27 1015.37 1015.43 1015.43 1015.35 1015.16 1014.85 1014.41 1013.87 1013.25 1012.61 1011.99
1005.48 1006.46 1007.31 1007.98 1008.45 1008.77 1008.99 1009.21 1009.50 1009.91 1010.42 1011.03 1011.66 1012.25 1012.74 1013.09 1013.29 1013.36 1013.34 1013.28 1013.24 1013.26 1013.33 1013.47 1013.66 1013.87 1014.08 1014.26 1014.43 1014.57 1014.70 1014.82 1014.93 1015.03 1015.09 1015.09 1014.99 1014.78 1014.44 1013.98 1013.43 1012.82 1012.19
1004.23 1005.35 1006.39 1007.26 1007.92 1008.40 1008.75 1009.04 1009.34 1009.72 1010.19 1010.73 1011.31 1011.86 1012.33 1012.68 1012.89 1012.98 1012.99 1012.95 1012.92 1012.92 1012.98 1013.10 1013.25 1013.43 1013.62 1013.78 1013.92 1014.05 1014.16 1014.28 1014.41 1014.53 1014.64 1014.70 1014.69 1014.58 1014.34 1013.99 1013.53 1012.99 1012.41
1002.98 1004.19 1005.38 1006.44 1007.31 1007.98 1008.48 1008.88 1009.23 1009.60 1010.02 1010.50 1010.99 1011.47 1011.89 1012.21 1012.42 1012.52 1012.54 1012.52 1012.50 1012.50 1012.56 1012.66 1012.81 1012.97 1013.13 1013.28 1013.40 1013.52 1013.62 1013.73 1013.85 1013.98 1014.11 1014.21 1014.25 1014.22 1014.08 1013.84 1013.48 1013.04 1012.54
1001.80 1003.03 1004.31 1005.52 1006.58 1007.44 1008.11 1008.64 1009.07 1009.46 1009.85 1010.26 1010.68 1011.08 1011.43 1011.71 1011.90 1012.00 1012.04 1012.04 1012.03 1012.05 1012.11 1012.21 1012.35 1012.50 1012.66 1012.80 1012.92 1013.02 1013.11 1013.21 1013.31 1013.42 1013.54 1013.65 1013.72 1013.74 1013.67 1013.51 1013.26 1012.93 1012.53
1000.77 1001.92 1003.21 1004.50 1005.69 1006.72 1007.55 1008.22 1008.75 1009.19 1009.59 1009.96 1010.33 1010.66 1010.96 1011.20 1011.37 1011.47 1011.53 1011.55 1011.57 1011.61 1011.68 1011.79 1011.93 1012.08 1012.23 1012.37 1012.49 1012.59 1012.67 1012.75 1012.83 1012.91 1012.99 1013.07 1013.14 1013.16 1013.14 1013.04 1012.88 1012.66 1012.37
999.91 1000.90 1002.10 1003.39 1004.65 1005.78 1006.76 1007.56 1008.20 1008.72 1009.15 1009.54 1009.88 1010.19 1010.46 1010.69 1010.86 1010.98 1011.06 1011.11 1011.16 1011.23 1011.31 1011.43 1011.57 1011.73 1011.88 1012.03 1012.16 1012.26 1012.33 1012.39 1012.44 1012.47 1012.51 1012.54 1012.56 1012.57 1012.55 1012.49 1012.40 1012.26 1012.08
999.23 1000.00 1001.05 1002.25 1003.49 1004.68 1005.74 1006.65 1007.40 1008.02 1008.52 1008.95 1009.32 1009.65 1009.93 1010.18 1010.38 1010.54 1010.66 1010.76 1010.85 1010.94 1011.05 1011.17 1011.32 1011.47 1011.63 1011.79 1011.92 1012.02 1012.10 1012.14 1012.15 1012.15 1012.13 1012.10 1012.06 1012.02 1011.98 1011.94 1011.88 1011.81 1011.72
998.76 999.27 1000.12 1001.18 1002.34 1003.52 1004.62 1005.61 1006.45 1007.15 1007.74 1008.24 1008.68 1009.06 1009.39 1009.69 1009.95 1010.18 1010.36 1010.52 1010.65 1010.78 1010.90 1011.03 1011.17 1011.33 1011.48 1011.64 1011.77 1011.88 1011.95 1011.99 1011.98 1011.93 1011.86 1011.77 1011.68 1011.59 1011.51 1011.46 1011.42 1011.39 1011.36
998.50 998.78 999.42 1000.31 1001.36 1002.47 1003.57 1004.58 1005.49 1006.27 1006.94 1007.52 1008.02 1008.48 1008.89 1009.26 1009.60 1009.90 1010.16 1010.38 1010.57 1010.73 1010.87 1011.00 1011.14 1011.28 1011.42 1011.56 1011.69 1011.80 1011.87 1011.90 1011.88 1011.81 1011.70 1011.57 1011.42 1011.29 1011.17 1011.09 1011.05 1011.05 1011.06
998.48 998.60 999.06 999.79 1000.71 1001.74 1002.79 1003.79 1004.72 1005.54 1006.26 1006.90 1007.47 1008.00 1008.48 1008.93 1009.35 1009.73 1010.07 1010.35 1010.59 1010.78 1010.93 1011.06 1011.18 1011.30 1011.42 1011.54 1011.65 1011.75 1011.82 1011.85 1011.82 1011.74 1011.62 1011.46 1011.28 1011.11 1010.97 1010.87 1010.82 1010.82 1010.85
998.74 998.78 999.13 999.74 1000.55 1001.48 1002.46 1003.42 1004.32 1005.14 1005.87 1006.53 1007.13 1007.69 1008.22 1008.73 1009.22 1009.66 1010.06 1010.40 1010.68 1010.90 1011.06 1011.18 1011.27 1011.35 1011.44 1011.52 1011.61 1011.70 1011.76 1011.79 1011.77 1011.70 1011.58 1011.42 1011.23 1011.05 1010.89 1010.77 1010.71 1010.70 1010.74
999.29 999.36 999.67 1000.22 1000.95 1001.79 1002.68 1003.56 1004.40 1005.16 1005.85 1006.48 1007.06 1007.62 1008.15 1008.68 1009.19 1009.68 1010.12 1010.50 1010.80 1011.04 1011.20 1011.30 1011.37 1011.41 1011.45 1011.50 1011.55 1011.61 1011.66 1011.69 1011.68 1011.63 1011.53 1011.39 1011.23 1011.05 1010.89 1010.77 1010.70 1010.67 1010.70
1000.13 1000.30 1000.65 1001.19 1001.87 1002.63 1003.44 1004.22 1004.96 1005.62 1006.22 1006.77 1007.28 1007.78 1008.27 1008.77 1009.27 1009.75 1010.20 1010.59 1010.91 1011.15 1011.31 1011.40 1011.44 1011.44 1011.44 1011.44 1011.45 1011.48 1011.52 1011.55 1011.56 1011.54 1011.47 1011.37 1011.24 1011.09 1010.95 1010.83 1010.75 1010.71 1010.72
1001.19 1001.51 1001.96 1002.52 1003.18 1003.89 1004.61 1005.29 1005.90 1006.44 1006.91 1007.33 1007.73 1008.12 1008.52 1008.95 1009.40 1009.85 1010.27 1010.66 1010.98 1011.22 1011.37 1011.45 1011.46 1011.43 1011.39 1011.35 1011.33 1011.33 1011.36 1011.39 1011.41 1011.41 1011.39 1011.33 1011.25 1011.14 1011.03 1010.92 1010.84 1010.79 1010.78
1002.38 1002.86 1003.40 1004.02 1004.67 1005.33 1005.96 1006.53 1007.02 1007.42 1007.75 1008.03 1008.29 1008.55 1008.84 1009.17 1009.54 1009.93 1010.31 1010.67 1010.98 1011.21 1011.36 1011.43 1011.43 1011.39 1011.33 1011.26 1011.22 1011.20 1011.20 1011.23 1011.27 1011.30 1011.31 1011.30 1011.26 1011.19 1011.12 1011.03 1010.96 1010.90 1010.86
1003.58 1004.18 1004.80 1005.45 1006.09 1006.70 1007.25 1007.72 1008.09 1008.37 1008.57 1008.71 1008.84 1008.98 1009.15 1009.37 1009.65 1009.96 1010.30 1010.62 1010.91 1011.14 1011.29 1011.37 1011.38 1011.34 1011.27 1011.20 1011.14 1011.10 1011.10 1011.13 1011.17 1011.22 1011.26 1011.29 1011.29 1011.26 1011.21 1011.15 1011.08 1011.02 1010.96
1004.68 1005.34 1005.99 1006.63 1007.25 1007.80 1008.28 1008.66 1008.94 1009.11 1009.21 1009.26 1009.28 1009.31 1009.39 1009.52 1009.71 1009.96 1010.23 1010.52 1010.79 1011.02 1011.18 1011.28 1011.31 1011.30 1011.24 1011.18 1011.13 1011.09 1011.08 1011.10 1011.15 1011.20 1011.26 1011.31 1011.33 1011.34 1011.31 1011.27 1011.21 1011.14 1011.07
1005.61 1006.25 1006.88 1007.47 1008.02 1008.51 1008.93 1009.24 1009.46 1009.58 1009.62 1009.60 1009.57 1009.54 1009.54 1009.61 1009.73 1009.92 1010.15 1010.40 1010.65 1010.88 1011.06 1011.19 1011.26 1011.28 1011.26 1011.23 1011.19 1011.16 1011.15 1011.17 1011.20 1011.25 1011.31 1011.36 1011.40 1011.42 1011.41 1011.37 1011.32 1011.25 1011.17
1006.34 1006.91 1007.45 1007.95 1008.43 1008.85 1009.20 1009.47 1009.66 1009.76 1009.79 1009.77 1009.71 1009.66 1009.64 1009.66 1009.74 1009.88 1010.07 1010.29 1010.52 1010.75 1010.95 1011.11 1011.22 1011.29 1011.32 1011.32 1011.31 1011.30 1011.29 1011.30 1011.32 1011.35 1011.39 1011.43 1011.46 1011.47 1011.47 1011.44 1011.40 1011.33 1011.25
1006.90 1007.34 1007.76 1008.16 1008.55 1008.90 1009.21 1009.46 1009.65 1009.77 1009.82 1009.82 1009.79 1009.75 1009.73 1009.73 1009.78 1009.87 1010.02 1010.21 1010.42 1010.64 1010.86 1011.04 1011.20 1011.31 1011.39 1011.44 1011.45 1011.46 1011.45 1011.45 1011.45 1011.45 1011.46 1011.47 1011.49 1011.49 1011.48 1011.46 1011.42 1011.36 1011.29
1007.34 1007.64 1007.94 1008.24 1008.54 1008.83 1009.11 1009.36 1009.57 1009.73 1009.83 1009.88 1009.89 1009.87 1009.85 1009.84 1009.86 1009.92 1010.03 1010.17 1010.35 1010.55 1010.76 1010.97 1011.15 1011.31 1011.43 1011.52 1011.57 1011.59 1011.58 1011.56 1011.54 1011.51 1011.48 1011.46 1011.45 1011.43 1011.42 1011.40 1011.37 1011.33 1011.28
1007.72 1007.91 1008.11 1008.32 1008.56 1008.81 1009.08 1009.34 1009.57 1009.77 1009.92 1010.02 1010.06 1010.07 1010.05 1010.02 1010.01 1010.02 1010.07 1010.16 1010.29 1010.46 1010.66 1010.86 1011.07 1011.25 1011.41 1011.52 1011.60 1011.63 1011.63 1011.59 1011.54 1011.48 1011.42 1011.37 1011.33 1011.30 1011.29 1011.28 1011.27 1011.25 1011.23
Thickness
5837 5835 5832 5828 5821 5815 5810 5805 5801 5798 5795 5790 5785 5781 5778 5778 5777 5775 5772 5770 5768 5767 5765 5764 5762 5761 5759 5757 5756 5755 5753 5751 5752 5748 5746 5748 5752 5752 5752 5753 5752 5752 5751
5839 5835 5833 5829 5823 5817 5812 5807 5803 5800 5797 5793 5790 5786 5783 5781 5779 5777 5774 5772 5770 5768 5767 5764 5762 5761 5759 5757 5756 5754 5751 5751 5751 5746 5740 5737 5740 5747 5751 5751 5750 5750 5749
5842 5837 5834 5831 5827 5820 5816 5812 5807 5803 5799 5797 5793 5789 5785 5782 5779 5776 5774 5773 5772 5770 5768 5766 5764 5762 5760 5758 5756 5755 5751 5747 5749 5749 5743 5736 5733 5739 5744 5747 5748 5748 5747
5850 5842 5838 5834 5831 5827 5823 5817 5811 5806 5802 5799 5794 5788 5782 5778 5778 5777 5775 5774 5773 5771 5769 5767 5764 5763 5761 5759 5758 5756 5754 5750 5746 5748 5749 5747 5744 5736 5734 5740 5744 5745 5744
5855 5848 5843 5839 5837 5833 5827 5820 5813 5808 5804 5800 5796 5790 5786 5783 5782 5779 5776 5774 5773 5772 5770 5768 5766 5763 5762 5760 5759 5757 5755 5753 5749 5747 5747 5746 5745 5744 5736 5732 5736 5739 5742
5859 5853 5848 5843 5839 5836 5830 5823 5814 5808 5805 5801 5797 5792 5787 5784 5781 5778 5775 5774 5773 5772 5771 5769 5766 5764 5762 5761 5759 5758 5756 5754 5752 5750 5749 5746 5743 5741 5739 5734 5733 5734 5738
5860 5853 5847 5841 5837 5834 5830 5824 5815 5808 5805 5801 5797 5793 5789 5786 5782 5779 5776 5774 5773 5771 5770 5769 5767 5765 5763 5761 5759 5757 5756 5754 5752 5750 5749 5749 5748 5747 5743 5737 5734 5734 5736
5861 5854 5848 5843 5838 5834 5830 5823 5815 5809 5805 5801 5797 5794 5791 5787 5784 5781 5779 5776 5775 5774 5771 5769 5766 5764 5763 5761 5759 5757 5756 5754 5752 5752 5750 5749 5749 5748 5746 5741 5735 5730 5731
5861 5854 5849 5844 5838 5833 5829 5824 5816 5809 5805 5801 5798 5794 5790 5787 5784 5782 5780 5778 5775 5774 5771 5768 5765 5763 5761 5760 5758 5755 5754 5753 5752 5751 5750 5749 5749 5748 5747 5745 5741 5732 5724
5857 5854 5848 5843 5838 5834 5828 5824 5816 5809 5805 5801 5797 5793 5789 5787 5784 5781 5778 5776 5774 5771 5769 5766 5764 5761 5759 5758 5756 5754 5753 5752 5751 5750 5748 5747 5747 5747 5745 5744 5742 5738 5731
5849 5848 5845 5840 5835 5831 5825 5819 5814 5808 5803 5800 5795 5792 5788 5785 5782 5779 5777 5775 5772 5769 5766 5763 5761 5759 5757 5756 5754 5752 5751 5749 5747 5747 5746 5745 5745 5743 5743 5741 5739 5736 5733
5843 5842 5839 5833 5827 5824 5820 5815 5810 5806 5802 5799 5794 5789 5786 5782 5779 5777 5775 5773 5770 5767 5764 5761 5758 5756 5755 5754 5752 5749 5748 5746 5744 5743 5743 5742 5742 5740 5739 5737 5735 5733 5732
5831 5830 5828 5824 5819 5817 5814 5810 5807 5803 5800 5796 5790 5786 5782 5779 5776 5774 5772 5770 5767 5763 5761 5758 5755 5753 5752 5751 5749 5747 5746 5744 5743 5742 5740 5740 5738 5736 5734 5733 5731 5729 5728
5818 5817 5816 5815 5813 5811 5808 5805 5803 5801 5798 5793 5788 5783 5779 5776 5773 5771 5769 5766 5763 5760 5757 5755 5753 5750 5749 5747 5746 5744 5743 5741 5740 5739 5738 5737 5735 5733 5731 5729 5727 5725 5721
5805 5803 5805 5805 5804 5802 5801 5800 5798 5796 5793 5788 5784 5779 5777 5773 5770 5767 5765 5762 5760 5757 5754 5751 5749 5747 5745 5743 5741 5739 5738 5737 5736 5735 5734 5733 5732 5730 5728 5726 5723 5721 5717
5796 5797 5798 5796 5795 5795 5793 5792 5791 5790 5787 5783 5779 5776 5772 5768 5765 5762 5759 5757 5755 5753 5750 5746 5744 5742 5741 5739 5737 5735 5733 5731 5730 5729 5729 5728 5727 5725 5723 5721 5718 5716 5712
5788 5786 5787 5788 5788 5788 5787 5784 5784 5784 5781 5777 5773 5770 5766 5763 5760 5758 5754 5750 5748 5747 5744 5742 5739 5737 5735 5733 5731 5729 5728 5726 5725 5724 5723 5723 5723 5720 5718 5715 5713 5711 5708
5779 5778 5779 5779 5779 5779 5779 5778 5776 5774 5772 5769 5766 5763 5759 5756 5754 5752 5747 5744 5743 5740 5738 5736 5734 5731 5729 5727 5725 5723 5722 5721 5720 5720 5718 5716 5715 5714 5711 5709 5706 5705 5703
5771 5771 5773 5773 5772 5770 5769 5768 5765 5763 5761 5759 5757 5755 5752 5748 5745 5743 5740 5738 5735 5732 5731 5730 5728 5726 5723 5721 5719 5717 5717 5715 5714 5714 5713 5711 5708 5706 5703 5701 5698 5697 5695
5763 5762 5763 5762 5761 5760 5759 5756 5754 5751 5749 5749 5748 5747 5745 5741 5738 5736 5733 5731 5728 5726 5724 5723 5722 5721 5718 5715 5713 5711 5710 5709 5708 5707 5706 5704 5702 5699 5695 5693 5691 5689 5689
5753 5753 5752 5749 5749 5749 5749 5744 5742 5740 5739 5739 5738 5737 5735 5732 5730 5728 5726 5724 5721 5718 5717 5716 5715 5715 5712 5709 5706 5704 5703 5702 5701 5700 5698 5696 5693 5690 5688 5686 5685 5683 5682
5740 5741 5739 5737 5738 5739 5737 5733 5730 5731 5731 5729 5728 5726 5724 5724 5723 5718 5716 5715 5713 5711 5709 5708 5706 5707 5705 5701 5698 5697 5695 5693 5692 5692 5690 5688 5684 5682 5680 5677 5676 5675 5672
5728 5728 5727 5725 5726 5727 5726 5722 5721 5721 5720 5719 5718 5716 5713 5713 5712 5709 5707 5706 5705 5703 5701 5699 5697 5697 5696 5693 5690 5687 5685 5684 5682 5683 5681 5678 5675 5673 5671 5668 5667 5665 5664
5716 5716 5715 5713 5712 5714 5714 5713 5712 5711 5709 5707 5705 5705 5703 5702 5701 5699 5699 5697 5696 5694 5692 5691 5688 5687 5686 5684 5681 5678 5675 5672 5671 5671 5669 5667 5664 5663 5661 5660 5658 5656 5656
5705 5705 5703 5701 5701 5702 5701 5703 5703 5701 5698 5696 5695 5694 5694 5692 5690 5689 5688 5687 5686 5684 5681 5681 5681 5678 5676 5674 5670 5668 5666 5664 5662 5659 5659 5657 5655 5653 5652 5652 5651 5650 5648
5695 5694 5692 5692 5692 5692 5692 5692 5692 5691 5688 5686 5685 5684 5683 5683 5682 5680 5678 5676 5674 5672 5671 5670 5669 5668 5666 5663 5661 5658 5656 5654 5651 5649 5650 5649 5647 5646 5645 5644 5642 5641 5639